Time,TemperatureF,DewpointF,PressureIn,WindDirection,WindDirectionDegrees,WindSpeedMPH,WindSpeedGustMPH,Humidity,HourlyPrecipIn,Conditions,Clouds,dailyrainin,SolarRadiationWatts/m^2,SoftwareType,DateUTC
2013-06-06 00:02:00,56.0,39.0,-100.00,East,99,1.0,4.0,52,0.00,,,0.00,2.000000,,2013-06-06 06:02:00,
2013-06-06 00:12:00,56.0,39.0,-100.00,East,99,1.0,4.0,52,0.00,,,0.00,2.000000,,2013-06-06 06:12:00,
2013-06-06 00:33:00,53.0,38.0,-100.00,East,87,0.0,4.0,57,0.00,,,0.00,1.000000,,2013-06-06 06:33:00,
2013-06-06 00:42:00,53.0,38.0,-100.00,East,87,0.0,4.0,57,0.00,,,0.00,1.000000,,2013-06-06 06:42:00,
2013-06-06 00:52:00,53.0,38.0,-100.00,East,87,0.0,4.0,57,0.00,,,0.00,1.000000,,2013-06-06 06:52:00,
2013-06-06 01:02:00,53.0,38.0,-100.00,East,87,0.0,4.0,57,0.00,,,0.00,1.000000,,2013-06-06 07:02:00,
2013-06-06 01:12:00,53.0,38.0,-100.00,East,87,0.0,4.0,57,0.00,,,0.00,1.000000,,2013-06-06 07:12:00,
2013-06-06 01:32:00,50.0,38.0,-100.00,NE,43,1.0,4.0,63,0.00,,,0.00,1.000000,,2013-06-06 07:32:00,
2013-06-06 01:42:00,50.0,38.0,-100.00,NE,43,1.0,4.0,63,0.00,,,0.00,1.000000,,2013-06-06 07:42:00,
2013-06-06 01:52:00,50.0,38.0,-100.00,NE,43,1.0,4.0,63,0.00,,,0.00,1.000000,,2013-06-06 07:52:00,
2013-06-06 02:02:00,50.0,38.0,-100.00,NE,43,1.0,4.0,63,0.00,,,0.00,1.000000,,2013-06-06 08:02:00,
2013-06-06 02:12:00,50.0,38.0,-100.00,NE,43,1.0,4.0,63,0.00,,,0.00,1.000000,,2013-06-06 08:12:00,
2013-06-06 02:32:00,48.0,38.0,-100.00,ESE,106,1.0,3.0,69,0.00,,,0.00,1.000000,,2013-06-06 08:32:00,
2013-06-06 02:42:00,48.0,38.0,-100.00,ESE,106,1.0,3.0,69,0.00,,,0.00,1.000000,,2013-06-06 08:42:00,
2013-06-06 02:52:00,48.0,38.0,-100.00,ESE,106,1.0,3.0,69,0.00,,,0.00,1.000000,,2013-06-06 08:52:00,
2013-06-06 03:02:00,48.0,38.0,-100.00,ESE,106,1.0,3.0,69,0.00,,,0.00,1.000000,,2013-06-06 09:02:00,
2013-06-06 03:12:00,48.0,38.0,-100.00,ESE,106,1.0,3.0,69,0.00,,,0.00,1.000000,,2013-06-06 09:12:00,
2013-06-06 03:33:00,47.0,39.0,-100.00,ESE,107,0.0,6.0,73,0.00,,,0.00,1.000000,,2013-06-06 09:33:00,
2013-06-06 03:43:00,47.0,39.0,-100.00,ESE,107,0.0,6.0,73,0.00,,,0.00,1.000000,,2013-06-06 09:43:00,
2013-06-06 03:53:00,47.0,39.0,-100.00,ESE,107,0.0,6.0,73,0.00,,,0.00,1.000000,,2013-06-06 09:53:00,
2013-06-06 04:02:00,47.0,39.0,-100.00,ESE,107,0.0,6.0,73,0.00,,,0.00,1.000000,,2013-06-06 10:02:00,
2013-06-06 04:12:00,47.0,39.0,-100.00,ESE,107,0.0,6.0,73,0.00,,,0.00,1.000000,,2013-06-06 10:12:00,
2013-06-06 04:33:00,46.0,39.0,-100.00,East,91,2.0,4.0,77,0.00,,,-99.99,1.000000,,2013-06-06 10:33:00,
2013-06-06 04:42:00,46.0,39.0,-100.00,East,91,2.0,4.0,77,0.00,,,-99.99,1.000000,,2013-06-06 10:42:00,
2013-06-06 04:53:00,46.0,39.0,-100.00,East,91,2.0,4.0,77,0.00,,,-99.99,1.000000,,2013-06-06 10:53:00,
2013-06-06 05:02:00,46.0,39.0,-100.00,East,91,2.0,4.0,77,0.00,,,-99.99,1.000000,,2013-06-06 11:02:00,
2013-06-06 05:12:00,46.0,39.0,-100.00,East,91,2.0,4.0,77,0.00,,,-99.99,1.000000,,2013-06-06 11:12:00,
2013-06-06 05:32:00,46.0,40.0,-100.00,NNE,33,2.0,6.0,78,0.00,,,0.00,1.000000,,2013-06-06 11:32:00,
2013-06-06 05:42:00,46.0,40.0,-100.00,NNE,33,2.0,6.0,78,0.00,,,0.00,1.000000,,2013-06-06 11:42:00,
2013-06-06 05:52:00,46.0,40.0,-100.00,NNE,33,2.0,6.0,78,0.00,,,0.00,1.000000,,2013-06-06 11:52:00,
2013-06-06 06:02:00,46.0,40.0,-100.00,NNE,33,2.0,6.0,78,0.00,,,0.00,1.000000,,2013-06-06 12:02:00,
2013-06-06 06:12:00,46.0,40.0,-100.00,NNE,33,2.0,6.0,78,0.00,,,0.00,1.000000,,2013-06-06 12:12:00,
2013-06-06 06:33:00,45.0,40.0,-100.00,ENE,59,2.0,7.0,81,0.00,,,0.00,1.000000,,2013-06-06 12:33:00,
2013-06-06 06:43:00,45.0,40.0,-100.00,ENE,59,2.0,7.0,81,0.00,,,0.00,1.000000,,2013-06-06 12:43:00,
2013-06-06 06:53:00,45.0,40.0,-100.00,ENE,59,2.0,7.0,81,0.00,,,0.00,1.000000,,2013-06-06 12:53:00,
2013-06-06 07:02:00,45.0,40.0,-100.00,ENE,59,2.0,7.0,81,0.00,,,0.00,1.000000,,2013-06-06 13:02:00,
2013-06-06 07:12:00,45.0,40.0,-100.00,ENE,59,2.0,7.0,81,0.00,,,0.00,1.000000,,2013-06-06 13:12:00,
2013-06-06 07:33:00,45.0,40.0,-100.00,NE,34,2.0,6.0,83,0.00,,,0.00,5.000000,,2013-06-06 13:33:00,
2013-06-06 07:43:00,45.0,40.0,-100.00,NE,34,2.0,6.0,83,0.00,,,0.00,5.000000,,2013-06-06 13:43:00,
2013-06-06 07:53:00,45.0,40.0,-100.00,NE,34,2.0,6.0,83,0.00,,,0.00,5.000000,,2013-06-06 13:53:00,
2013-06-06 08:02:00,45.0,40.0,-100.00,NE,34,2.0,6.0,83,0.00,,,0.00,5.000000,,2013-06-06 14:02:00,
2013-06-06 08:12:00,45.0,40.0,-100.00,NE,34,2.0,6.0,83,0.00,,,0.00,5.000000,,2013-06-06 14:12:00,
2013-06-06 08:33:00,47.0,41.0,-100.00,ENE,57,2.0,5.0,79,0.00,,,0.00,42.000000,,2013-06-06 14:33:00,
2013-06-06 08:43:00,47.0,41.0,-100.00,ENE,57,2.0,5.0,79,0.00,,,0.00,42.000000,,2013-06-06 14:43:00,
2013-06-06 08:53:00,47.0,41.0,-100.00,ENE,57,2.0,5.0,79,0.00,,,0.00,42.000000,,2013-06-06 14:53:00,
2013-06-06 09:02:00,47.0,41.0,-100.00,ENE,57,2.0,5.0,79,0.00,,,0.00,42.000000,,2013-06-06 15:02:00,
2013-06-06 09:12:00,47.0,41.0,-100.00,ENE,57,2.0,5.0,79,0.00,,,0.00,42.000000,,2013-06-06 15:12:00,
2013-06-06 10:34:00,58.0,44.0,-100.00,NNW,348,3.0,8.0,59,-99.99,,,0.00,248.000000,,2013-06-06 16:34:00,
2013-06-06 10:44:00,58.0,44.0,-100.00,NNW,348,3.0,8.0,59,-99.99,,,0.00,248.000000,,2013-06-06 16:44:00,
2013-06-06 10:53:00,58.0,44.0,-100.00,NNW,348,3.0,8.0,59,-99.99,,,0.00,248.000000,,2013-06-06 16:53:00,
2013-06-06 11:03:00,58.0,44.0,-100.00,NNW,348,3.0,8.0,59,-99.99,,,0.00,248.000000,,2013-06-06 17:03:00,
2013-06-06 11:12:00,58.0,44.0,-100.00,NNW,348,3.0,8.0,59,-99.99,,,0.00,248.000000,,2013-06-06 17:12:00,
2013-06-06 11:33:00,64.0,44.0,-100.00,NW,310,2.0,6.0,49,0.00,,,-99.99,401.000000,,2013-06-06 17:33:00,
2013-06-06 11:43:00,64.0,44.0,-100.00,NW,310,2.0,6.0,49,0.00,,,-99.99,401.000000,,2013-06-06 17:43:00,
2013-06-06 11:53:00,64.0,44.0,-100.00,NW,310,2.0,6.0,49,0.00,,,-99.99,401.000000,,2013-06-06 17:53:00,
2013-06-06 12:03:00,64.0,44.0,-100.00,NW,310,2.0,6.0,49,0.00,,,-99.99,401.000000,,2013-06-06 18:03:00,
2013-06-06 12:12:00,64.0,44.0,-100.00,NW,310,2.0,6.0,49,0.00,,,-99.99,401.000000,,2013-06-06 18:12:00,
2013-06-06 12:33:00,69.0,44.0,-100.00,WNW,303,3.0,5.0,41,0.00,,,0.00,445.000000,,2013-06-06 18:33:00,
2013-06-06 12:43:00,69.0,44.0,-100.00,WNW,303,3.0,5.0,41,0.00,,,0.00,445.000000,,2013-06-06 18:43:00,
2013-06-06 12:53:00,69.0,44.0,-100.00,WNW,303,3.0,5.0,41,0.00,,,0.00,445.000000,,2013-06-06 18:53:00,
2013-06-06 13:02:00,69.0,44.0,-100.00,WNW,303,3.0,5.0,41,0.00,,,0.00,445.000000,,2013-06-06 19:02:00,
2013-06-06 13:12:00,69.0,44.0,-100.00,WNW,303,3.0,5.0,41,0.00,,,0.00,445.000000,,2013-06-06 19:12:00,
2013-06-06 13:34:00,74.0,41.0,-100.00,NNW,341,4.0,6.0,30,0.00,,,0.00,736.000000,,2013-06-06 19:34:00,
2013-06-06 13:43:00,74.0,41.0,-100.00,NNW,341,4.0,6.0,30,0.00,,,0.00,736.000000,,2013-06-06 19:43:00,
2013-06-06 13:53:00,74.0,41.0,-100.00,NNW,341,4.0,6.0,30,0.00,,,0.00,736.000000,,2013-06-06 19:53:00,
2013-06-06 14:02:00,74.0,41.0,-100.00,NNW,341,4.0,6.0,30,0.00,,,0.00,736.000000,,2013-06-06 20:02:00,
2013-06-06 14:12:00,74.0,41.0,-100.00,NNW,341,4.0,6.0,30,0.00,,,0.00,736.000000,,2013-06-06 20:12:00,
2013-06-06 14:33:00,76.0,42.0,-100.00,SSW,205,3.0,8.0,30,0.00,,,0.00,803.000000,,2013-06-06 20:33:00,
2013-06-06 14:43:00,76.0,42.0,-100.00,SSW,205,3.0,8.0,30,0.00,,,0.00,803.000000,,2013-06-06 20:43:00,
2013-06-06 14:53:00,76.0,42.0,-100.00,SSW,205,3.0,8.0,30,0.00,,,0.00,803.000000,,2013-06-06 20:53:00,
2013-06-06 15:03:00,76.0,42.0,-100.00,SSW,205,3.0,8.0,30,0.00,,,0.00,803.000000,,2013-06-06 21:03:00,
2013-06-06 15:12:00,76.0,42.0,-100.00,SSW,205,3.0,8.0,30,0.00,,,0.00,803.000000,,2013-06-06 21:12:00,
2013-06-06 15:33:00,78.0,41.0,-100.00,SE,146,4.0,9.0,27,0.00,,,0.00,751.000000,,2013-06-06 21:33:00,
2013-06-06 15:44:00,78.0,41.0,-100.00,SE,146,4.0,9.0,27,0.00,,,0.00,751.000000,,2013-06-06 21:44:00,
2013-06-06 15:53:00,78.0,41.0,-100.00,SE,146,4.0,9.0,27,0.00,,,0.00,751.000000,,2013-06-06 21:53:00,
2013-06-06 16:02:00,78.0,41.0,-100.00,SE,146,4.0,9.0,27,0.00,,,0.00,751.000000,,2013-06-06 22:02:00,
2013-06-06 16:12:00,78.0,41.0,-100.00,SE,146,4.0,9.0,27,0.00,,,0.00,751.000000,,2013-06-06 22:12:00,
2013-06-06 16:33:00,78.0,41.0,-100.00,SSE,164,6.0,13.0,27,0.00,,,0.00,913.000000,,2013-06-06 22:33:00,
2013-06-06 16:43:00,78.0,41.0,-100.00,SSE,164,6.0,13.0,27,0.00,,,0.00,913.000000,,2013-06-06 22:43:00,
2013-06-06 16:53:00,78.0,41.0,-100.00,SSE,164,6.0,13.0,27,0.00,,,0.00,913.000000,,2013-06-06 22:53:00,
2013-06-06 17:02:00,78.0,41.0,-100.00,SSE,164,6.0,13.0,27,0.00,,,0.00,913.000000,,2013-06-06 23:02:00,
2013-06-06 17:12:00,78.0,41.0,-100.00,SSE,164,6.0,13.0,27,0.00,,,0.00,913.000000,,2013-06-06 23:12:00,
2013-06-06 17:33:00,80.0,40.0,-100.00,South,176,7.0,10.0,24,0.00,,,0.00,933.000000,,2013-06-06 23:33:00,
2013-06-06 17:43:00,80.0,40.0,-100.00,South,176,7.0,10.0,24,0.00,,,0.00,933.000000,,2013-06-06 23:43:00,
2013-06-06 17:52:00,80.0,40.0,-100.00,South,176,7.0,10.0,24,0.00,,,0.00,933.000000,,2013-06-06 23:52:00,
2013-06-06 18:02:00,80.0,40.0,-100.00,South,176,7.0,10.0,24,0.00,,,0.00,933.000000,,2013-06-07 00:02:00,
2013-06-06 18:11:00,80.0,40.0,-100.00,South,176,7.0,10.0,24,0.00,,,0.00,933.000000,,2013-06-07 00:11:00,
2013-06-06 19:33:00,81.0,41.0,-100.00,NW,322,4.0,9.0,24,-99.99,,,0.00,514.000000,,2013-06-07 01:33:00,
2013-06-06 19:42:00,81.0,41.0,-100.00,NW,322,4.0,9.0,24,-99.99,,,0.00,514.000000,,2013-06-07 01:42:00,
2013-06-06 19:52:00,81.0,41.0,-100.00,NW,322,4.0,9.0,24,-99.99,,,0.00,514.000000,,2013-06-07 01:52:00,
2013-06-06 20:02:00,81.0,41.0,-100.00,NW,322,4.0,9.0,24,-99.99,,,0.00,514.000000,,2013-06-07 02:02:00,
2013-06-06 20:12:00,81.0,41.0,-100.00,NW,322,4.0,9.0,24,-99.99,,,0.00,514.000000,,2013-06-07 02:12:00,
2013-06-06 20:32:00,80.0,39.0,-100.00,ESE,115,3.0,7.0,23,0.00,,,0.00,361.000000,,2013-06-07 02:32:00,
2013-06-06 20:42:00,80.0,39.0,-100.00,ESE,115,3.0,7.0,23,0.00,,,0.00,361.000000,,2013-06-07 02:42:00,
2013-06-06 20:52:00,80.0,39.0,-100.00,ESE,115,3.0,7.0,23,0.00,,,0.00,361.000000,,2013-06-07 02:52:00,
2013-06-06 21:02:00,80.0,39.0,-100.00,ESE,115,3.0,7.0,23,0.00,,,0.00,361.000000,,2013-06-07 03:02:00,
2013-06-06 21:12:00,80.0,39.0,-100.00,ESE,115,3.0,7.0,23,0.00,,,0.00,361.000000,,2013-06-07 03:12:00,
2013-06-06 21:33:00,69.0,46.0,-100.00,ESE,121,2.0,6.0,44,0.00,,,0.00,107.000000,,2013-06-07 03:33:00,
2013-06-06 21:44:00,69.0,46.0,-100.00,ESE,121,2.0,6.0,44,0.00,,,0.00,107.000000,,2013-06-07 03:44:00,
2013-06-06 21:53:00,69.0,46.0,-100.00,ESE,121,2.0,6.0,44,0.00,,,0.00,107.000000,,2013-06-07 03:53:00,
2013-06-06 22:03:00,69.0,46.0,-100.00,ESE,121,2.0,6.0,44,0.00,,,0.00,107.000000,,2013-06-07 04:03:00,
2013-06-06 22:12:00,69.0,46.0,-100.00,ESE,121,2.0,6.0,44,0.00,,,0.00,107.000000,,2013-06-07 04:12:00,
2013-06-06 22:33:00,63.0,46.0,-100.00,ESE,115,2.0,4.0,53,0.00,,,0.00,25.000000,,2013-06-07 04:33:00,
2013-06-06 22:42:00,63.0,46.0,-100.00,ESE,115,2.0,4.0,53,0.00,,,0.00,25.000000,,2013-06-07 04:42:00,
2013-06-06 22:53:00,63.0,46.0,-100.00,ESE,115,2.0,4.0,53,0.00,,,0.00,25.000000,,2013-06-07 04:53:00,
2013-06-06 23:02:00,63.0,46.0,-100.00,ESE,115,2.0,4.0,53,0.00,,,0.00,25.000000,,2013-06-07 05:02:00,
2013-06-06 23:12:00,63.0,46.0,-100.00,ESE,115,2.0,4.0,53,0.00,,,0.00,25.000000,,2013-06-07 05:12:00,
2013-06-06 23:32:00,59.0,45.0,-100.00,ESE,115,2.0,4.0,59,0.00,,,0.00,2.000000,,2013-06-07 05:32:00,
2013-06-06 23:42:00,59.0,45.0,-100.00,ESE,115,2.0,4.0,59,0.00,,,0.00,2.000000,,2013-06-07 05:42:00,
2013-06-06 23:52:00,59.0,45.0,-100.00,ESE,115,2.0,4.0,59,0.00,,,0.00,2.000000,,2013-06-07 05:52:00,